Greenville Spartanburg International Airport
KGSP : rendu visible

Aérodrome :











RETROUVEZ-NOUS SUR...

 
LOGIN :

S'inscrire | Disclaimer

   EN    FR    IT 

 









Légende :    VFR   VFR Marginal   IFR   IFR Intensif   IFR Très Intensif
Visi : 
Plafond : 
>= 8 km
>= 3000ft
5 à 8 km
1000 à 3000 ft
1500m à 5 km
500 à 1000 ft
800 à 1500m
200 à 500 ft
< 800m
< 200 ft
Symboles :   Orages  Brouillard  Fortes neiges  Fortes précipitations  Vent > 20 kt







- Altitude de l'aérodrome : 964 ft
- Code IATA : GSP


KGSP - Greenville Spartanburg International

DERNIER METAR :
  • 220853Z AUTO 23006KT 10SM CLR 18/14 A3023 RMK AO2 SLP226 T01830139 56005

METARs EXPIRÉS :
  • 220753Z AUTO 22006KT 10SM CLR 18/14 A3024 RMK AO2 SLP228 T01780139
  • 220653Z AUTO 00000KT 10SM CLR 18/14 A3024 RMK AO2 SLP229 T01780139

TAF KGSP
Valide du 22 à 06h jusqu'au 23 à 06h UTC


220528Z 2206/2306 00000KT P6SM SKC
FM221500 20005KT P6SM SKC
FM230200 21003KT P6SM SKC
Pas de NOTAMs connus pour ce terrain.



MET'MAP, la Météo Aéronautique d'un coup d'oeil ! - Copyright ORBIFLY Décembre 2007 - Disclaimer

ORBIFLY MET'MAP TEAM :

Programmation & Développement : Alexandra Zaïnal
Conception & Développement : Baudouin d'Aumeries
Co-Programmation & Développement : Marc-Olivier Méhu
Soutien technique & logistique : Manuel Goepfert

Contact : metmap@orbifly.com




SOURCES & CREDITS :

   NOAA       Earth
Advisory